Temperature
22 19 19 19 20 20 21 21 20 20 20 20 19 18 18 17 17 17 17 17 16 16 16 16 17 17 17 16 16 16 16 16 16 16 16 16 15 15 15 15 15 15 15 15
19 19 20 21 21 22 21 20 20 20 20 20 18 18 18 17 17 17 17 16 16 16 16 16 16 16 16 16 16 16 16 16 16 15 15 15 15 14 14 14 14 14 14 14
19 21 22 23 22 22 21 20 20 20 20 19 18 18 17 17 17 17 17 17 16 16 16 16 16 16 16 16 16 16 15 15 15 15 15 14 14 14 14 14 14 14 14 14
20 22 23 23 22 22 21 22 21 21 19 17 18 17 17 16 16 16 16 16 16 16 16 16 16 15 16 16 15 15 15 15 15 14 14 14 14 14 14 13 13 13 13 13
21 22 22 22 23 23 22 22 21 21 18 17 17 17 16 16 16 16 16 16 16 16 16 15 15 15 15 15 15 15 14 14 14 14 14 14 13 13 13 13 13 13 13 13
22 23 23 23 23 23 22 21 20 17 16 17 17 17 16 15 16 16 16 16 16 15 15 15 15 14 14 14 14 14 14 14 13 13 13 13 13 13 13 12 12 12 12 12
21 22 23 23 22 22 21 18 17 17 16 16 17 17 16 16 16 16 16 15 15 15 15 14 14 14 14 14 14 14 13 13 13 13 13 12 12 12 12 12 12 11 11 11
20 20 22 23 22 21 20 18 17 17 17 16 17 16 16 16 16 16 15 15 15 14 14 14 14 14 14 13 13 13 13 13 12 12 12 12 12 12 11 11 11 11 11 11
19 20 22 23 22 21 20 18 17 16 17 16 16 16 16 15 15 15 14 14 14 14 14 14 13 13 13 13 13 13 12 12 12 12 11 11 11 11 11 11 11 11 10 10
20 20 21 22 22 20 19 18 16 16 16 16 17 16 15 15 14 14 14 13 13 13 13 13 13 13 13 13 12 12 12 12 11 11 11 11 11 11 10 10 10 10 10 10
19 19 20 20 20 20 19 18 16 14 15 16 16 15 16 15 14 13 13 13 13 13 13 13 13 13 12 12 12 12 11 11 11 11 11 10 10 10 10 10 10 10 9 9
18 16 17 19 19 20 19 19 16 16 16 15 15 15 16 14 14 14 13 13 13 13 13 13 12 12 12 12 11 11 11 11 10 10 10 10 10 10 10 9 9 9 9 9
18 16 17 17 17 18 19 19 17 15 14 14 14 15 15 14 14 13 13 13 12 12 12 12 12 12 11 11 11 11 10 10 10 10 10 10 9 9 9 9 9 9 9 9
18 16 16 17 17 18 18 19 18 16 14 15 15 15 14 13 13 13 12 12 12 12 12 12 11 11 11 11 11 10 10 10 10 10 9 9 9 9 9 8 8 8 8 8
17 16 17 18 19 19 19 19 18 17 16 15 15 15 14 13 13 13 12 12 12 11 11 11 11 11 11 10 10 10 10 10 9 9 9 9 9 8 8 8 8 8 8 8
16 17 17 17 19 19 18 19 18 18 17 16 15 14 14 13 13 12 12 12 11 11 11 11 11 10 10 10 10 10 9 9 9 9 9 9 8 8 8 8 8 8 8 8
15 16 16 16 18 18 17 17 17 16 16 16 15 14 13 12 12 12 12 12 11 11 11 10 10 10 10 10 10 9 9 9 9 9 8 8 8 8 8 8 8 8 8 8
16 15 14 15 16 16 16 17 17 16 15 15 14 13 12 12 12 12 12 12 11 11 11 10 10 10 10 9 9 9 9 9 9 8 8 8 8 8 8 8 8 8 8 8
16 15 14 14 15 15 17 17 16 15 14 14 13 13 12 12 12 11 11 12 11 11 11 10 10 10 9 9 9 9 9 8 8 8 8 8 8 8 8 8 8 7 8 8
16 15 14 14 15 15 16 17 17 15 13 14 13 12 12 12 10 10 11 11 11 10 10 10 10 9 9 9 9 9 8 8 8 8 8 8 8 8 8 8 8 7 8 8
16 15 14 14 14 15 16 17 17 15 13 14 14 13 12 12 11 11 11 11 10 10 10 10 9 9 9 9 9 8 8 8 8 8 8 8 8 8 8 8 8 7 8 7
15 15 14 14 14 14 16 16 15 13 14 14 13 13 13 12 11 11 11 10 10 10 9 9 9 9 9 8 8 8 8 8 8 8 8 8 8 8 8 8 8 8 8 7
15 14 13 13 13 14 16 15 15 15 14 14 13 13 13 12 11 11 10 10 10 9 9 9 9 9 8 8 8 8 8 8 8 8 8 8 8 8 8 8 8 8 8 8
16 15 13 13 14 14 15 15 15 15 14 14 13 13 12 12 11 10 10 10 9 9 9 9 9 8 8 8 8 8 8 8 8 8 8 8 8 8 8 8 8 8 8 8
16 15 13 13 14 14 15 15 15 15 14 13 13 13 12 12 11 10 10 9 9 9 9 9 9 8 8 8 8 8 8 8 8 8 8 8 8 8 8 8 8 8 8 8
15 14 13 13 14 14 14 15 15 14 14 13 13 12 12 12 11 10 10 10 9 9 9 9 9 8 8 8 8 8 8 8 8 8 8 8 8 8 8 8 8 8 8 8
Wind_Speed
2 2 5 9 7 7 5 2 1 3 2 3 6 7 8 8 10 11 10 11 11 10 9 8 7 8 7 7 7 5 5 3 3 2 2 2 2 1 2 3 5 6 5 4
3 6 12 9 6 4 4 2 2 3 1 3 4 4 5 7 10 12 14 14 14 11 10 9 8 6 6 6 6 5 4 3 3 2 2 2 2 2 2 3 5 6 7 5
8 8 7 5 5 3 4 6 6 4 1 4 5 1 2 2 3 6 8 10 13 15 14 11 9 7 6 6 5 4 3 3 3 3 3 3 3 3 3 3 3 4 6 6
5 7 4 2 3 3 4 5 6 4 4 1 3 2 3 4 4 5 6 8 10 12 12 10 9 8 7 6 6 5 4 4 3 3 4 4 3 2 1 1 2 3 5 5
5 3 1 2 5 4 4 3 4 3 5 3 2 3 3 1 3 5 6 8 10 10 11 11 10 8 7 7 6 5 5 4 4 4 4 4 4 3 2 3 3 4 4 5
5 3 2 4 2 3 3 4 6 6 5 2 3 4 2 1 4 4 5 7 8 9 10 10 9 9 7 7 6 5 5 4 4 5 5 5 5 4 5 4 3 3 3 4
6 5 3 1 2 4 4 5 4 4 4 2 2 2 2 2 3 5 6 6 8 7 9 10 10 9 8 8 6 5 6 4 4 5 5 5 5 5 5 3 3 3 2 3
1 5 3 0 2 2 2 7 6 4 3 2 2 1 2 2 1 4 7 8 9 8 7 9 10 10 9 8 7 6 6 4 4 5 5 4 5 4 3 3 3 3 2 1
3 4 4 1 2 3 3 2 6 6 2 1 1 1 1 3 4 5 6 7 9 8 8 9 8 8 8 7 6 6 6 5 4 5 5 4 4 4 4 4 3 2 2 2
5 2 4 2 6 5 5 5 6 5 3 1 1 1 2 2 3 5 6 7 7 8 8 9 9 8 7 6 5 5 5 5 4 4 4 4 4 4 4 4 4 3 3 3
3 2 4 5 3 0 3 3 5 4 5 5 2 3 3 5 6 7 7 8 8 8 7 8 7 7 6 5 5 4 4 4 3 3 4 4 4 4 4 4 3 3 3 3
2 4 1 2 3 1 3 2 5 4 2 3 4 3 3 3 5 7 8 8 8 8 7 7 7 7 6 5 5 4 3 3 3 3 4 4 3 4 4 3 3 3 3 3
4 5 3 5 6 4 2 1 3 5 4 3 4 2 2 5 6 7 7 8 8 7 7 7 7 6 5 5 4 4 3 3 3 4 4 3 3 3 3 2 3 3 3 3
5 4 5 5 4 3 1 2 2 5 4 3 4 4 2 5 7 8 8 8 7 7 7 7 6 4 4 4 4 4 3 4 4 5 4 3 2 2 2 2 2 3 3 3
5 4 3 2 0 2 3 3 4 4 5 6 6 6 6 7 8 9 8 8 8 8 7 6 5 4 3 3 3 3 3 3 4 4 4 2 2 2 3 3 3 3 4 4
4 4 3 2 3 5 6 5 5 4 4 6 7 3 3 6 7 7 7 9 9 7 6 6 5 4 3 2 3 3 3 2 4 4 3 2 2 3 3 3 4 4 4 4
3 4 3 0 1 4 4 4 3 5 4 6 5 4 7 6 7 7 7 7 7 7 6 6 5 4 3 2 3 4 3 3 3 4 3 3 3 3 3 3 4 4 3 3
6 4 4 2 4 2 2 2 7 8 6 5 7 8 9 8 6 5 5 7 7 6 7 6 5 4 2 2 2 3 3 3 4 4 3 3 3 3 3 3 3 2 2 2
6 6 4 3 2 1 1 0 3 5 3 3 8 9 9 9 7 4 2 5 6 5 6 5 5 4 3 3 3 4 3 3 4 4 2 2 3 3 2 2 2 1 2 2
5 6 5 4 3 3 4 1 4 7 2 1 7 9 9 7 4 2 3 5 5 5 4 4 4 3 4 3 4 5 4 4 3 3 2 2 2 2 2 1 1 1 1 1
3 4 4 4 2 2 2 1 2 3 5 4 7 8 8 5 5 6 6 6 6 6 5 5 5 4 3 4 5 5 4 3 3 3 3 2 1 1 1 0 0 1 1 2
4 4 2 3 3 4 3 2 3 5 4 7 7 7 7 7 9 9 8 7 7 6 5 5 4 3 3 4 5 4 2 2 2 3 3 2 1 1 1 1 1 1 1 2
3 5 5 4 5 4 1 5 5 7 8 6 7 8 10 9 8 8 7 7 6 6 5 4 5 4 2 3 5 4 2 2 3 3 2 1 1 2 2 1 1 1 1 1
2 4 5 5 3 4 5 6 6 8 8 8 9 10 10 9 9 8 7 6 6 5 4 4 5 4 3 2 3 4 3 3 4 3 2 1 2 2 2 2 1 1 1 1
3 4 5 5 5 6 5 7 8 9 10 11 10 9 10 11 9 8 7 7 6 4 4 4 5 5 4 3 3 3 3 4 4 2 2 1 1 1 1 2 1 1 1 3
1 6 7 6 8 7 6 7 9 10 9 10 10 9 9 9 9 8 7 6 6 5 5 5 5 5 4 4 3 3 3 5 4 2 1 1 1 1 1 1 1 3 2 2
Wind_Direction
283 75 250 242 216 207 218 221 232 254 246 129 135 152 173 170 164 158 158 158 155 154 147 137 131 120 110 101 99 95 91 91 96 101 107 101 89 72 61 61 57 53 48 46
359 262 244 242 251 229 227 208 226 268 240 138 136 157 171 177 175 169 169 169 163 157 153 151 142 130 121 114 105 98 95 89 88 106 126 137 132 104 83 63 52 48 46 42
215 249 250 234 255 237 240 196 204 201 70 82 105 102 179 201 157 166 176 172 170 168 164 160 150 141 127 117 114 108 90 80 76 88 97 92 77 64 49 42 35 36 46 49
246 259 264 247 255 193 248 218 181 170 123 116 134 192 257 194 199 191 185 178 172 172 163 159 153 147 137 124 109 97 84 75 69 85 104 110 109 103 89 70 43 29 35 42
269 274 241 220 241 188 216 203 166 146 125 89 53 132 281 182 202 209 195 185 173 170 169 163 157 150 135 121 111 100 86 69 63 79 98 102 98 100 89 71 54 33 28 36
261 275 213 221 237 158 151 67 47 52 75 86 243 152 266 236 225 210 195 184 172 166 167 158 146 137 128 120 113 105 93 75 65 69 75 91 100 96 88 72 57 35 25 18
323 313 294 231 30 360 65 81 38 11 21 248 264 128 236 255 223 189 173 163 147 148 161 154 147 144 139 131 126 115 105 88 74 73 69 77 90 94 94 90 76 62 38 19
340 309 301 354 165 197 177 134 150 186 211 269 338 167 251 275 212 139 134 144 136 134 143 150 152 144 140 139 137 128 116 101 86 82 76 73 80 84 83 84 87 77 67 34
184 264 296 28 65 131 119 115 158 134 131 88 291 268 318 44 63 91 106 115 128 132 139 144 143 135 135 139 140 133 123 110 100 95 91 77 73 76 76 71 70 65 44 28
162 251 308 324 46 33 125 139 91 103 136 193 283 269 257 236 176 133 130 136 133 130 133 141 138 136 138 139 134 125 119 118 111 103 101 93 73 72 71 64 55 46 34 35
118 126 345 26 54 304 50 65 99 112 143 152 209 259 244 205 175 157 151 149 144 135 131 136 137 136 132 123 120 116 113 105 99 97 93 87 75 67 63 57 48 40 30 29
92 110 40 297 280 145 118 154 138 140 187 154 154 262 310 163 155 148 144 144 143 135 130 129 127 120 118 120 118 110 107 105 105 107 97 91 80 69 62 45 31 34 37 35
104 99 69 350 347 1 24 347 132 126 117 132 149 242 8 113 129 130 132 134 130 124 118 115 117 125 132 133 126 119 116 115 113 108 102 91 81 76 63 40 23 33 45 36
110 102 145 180 230 260 329 24 107 120 134 152 172 166 134 116 124 128 136 134 127 119 118 116 116 120 128 132 135 132 120 121 122 118 112 102 93 85 72 50 39 41 57 58
96 109 125 130 57 62 56 52 71 102 146 156 169 164 180 164 150 147 147 137 129 126 126 125 125 121 117 115 122 123 119 122 121 115 110 114 104 79 64 53 46 46 53 63
94 123 98 50 45 59 51 42 69 79 101 121 123 128 156 132 123 130 142 143 142 143 143 135 129 127 128 130 136 130 121 122 125 123 114 104 88 75 65 61 56 55 49 48
107 116 98 301 347 54 25 358 82 85 90 132 151 169 137 120 129 145 151 148 149 152 147 143 142 145 155 157 152 152 145 128 122 116 108 99 92 81 71 71 63 55 48 52
132 113 113 99 44 83 262 22 102 96 71 89 111 126 134 134 129 119 134 144 147 149 150 150 149 148 150 141 136 137 130 126 125 118 112 107 97 90 75 69 66 57 55 58
142 128 110 104 101 153 246 311 139 114 74 94 121 128 127 124 93 67 104 134 151 152 152 155 156 153 149 149 145 127 118 121 122 125 127 119 110 103 86 74 67 63 72 54
83 100 111 119 127 196 241 238 129 106 92 134 134 142 145 132 126 196 162 130 127 125 132 139 134 127 137 145 130 120 121 123 128 136 133 119 113 115 109 104 93 58 86 77
75 65 97 125 146 232 277 267 100 141 206 170 143 148 151 157 167 156 135 119 119 120 126 128 123 128 142 134 118 115 119 136 153 135 113 104 101 122 144 113 87 109 87 58
145 129 136 130 150 228 293 81 141 179 147 131 127 133 127 122 120 124 125 123 121 118 121 127 126 130 137 134 125 124 141 170 137 114 103 100 84 73 99 85 31 65 102 72
118 163 155 155 189 222 118 124 135 132 126 128 128 131 129 126 129 130 130 132 131 133 137 134 133 130 132 140 137 141 174 149 123 106 102 97 66 41 60 80 39 30 64 90
115 116 102 95 123 121 106 108 111 119 125 129 133 135 133 132 135 134 138 139 139 141 145 141 135 136 148 156 145 160 164 138 124 117 112 109 91 52 32 36 59 91 80 114
163 112 101 109 140 108 106 125 122 115 116 119 127 134 136 135 138 143 146 150 151 148 147 143 146 156 169 170 166 165 148 133 126 125 122 117 114 103 64 44 39 149 229 208
173 146 146 181 186 155 166 152 132 126 130 133 131 127 134 139 144 145 150 156 154 153 148 148 158 165 174 173 174 180 165 145 138 137 140 148 160 165 141 104 5 343 270 280
Height
1506 1512 1515 1511 1510 1511 1512 1517 1519 1517 1512 1515 1520 1524 1525 1525 1527 1529 1532 1534 1536 1539 1541 1542 1543 1544 1546 1547 1548 1548 1549 1549 1549 1550 1550 1550 1549 1549 1549 1549 1548 1548 1548 1548
1512 1514 1504 1502 1503 1506 1510 1516 1520 1516 1511 1515 1522 1526 1525 1525 1526 1527 1528 1531 1534 1537 1539 1541 1542 1544 1545 1546 1547 1548 1549 1548 1548 1548 1548 1549 1548 1548 1548 1547 1547 1546 1546 1546
1513 1505 1497 1500 1502 1506 1508 1513 1514 1516 1514 1516 1523 1532 1531 1529 1527 1528 1528 1531 1534 1535 1537 1539 1541 1543 1544 1545 1546 1547 1548 1548 1548 1547 1547 1547 1547 1547 1546 1546 1545 1545 1545 1544
1505 1498 1497 1500 1501 1502 1511 1502 1505 1510 1520 1530 1528 1542 1534 1530 1530 1529 1529 1531 1532 1534 1536 1538 1540 1542 1543 1545 1546 1547 1548 1547 1547 1546 1546 1546 1546 1545 1545 1545 1544 1544 1543 1542
1503 1497 1498 1500 1498 1498 1503 1498 1503 1508 1519 1531 1531 1539 1538 1530 1531 1529 1527 1528 1530 1531 1534 1536 1539 1542 1543 1544 1545 1546 1547 1547 1546 1546 1546 1545 1545 1545 1544 1544 1543 1543 1542 1541
1497 1493 1494 1494 1492 1493 1496 1502 1508 1516 1527 1541 1534 1538 1540 1534 1529 1525 1524 1526 1528 1531 1534 1536 1538 1541 1543 1544 1545 1546 1546 1546 1546 1546 1545 1545 1544 1544 1543 1543 1542 1542 1541 1540
1502 1496 1492 1491 1495 1496 1499 1516 1534 1538 1546 1544 1532 1535 1538 1528 1523 1522 1522 1523 1526 1531 1533 1534 1537 1540 1542 1543 1544 1545 1545 1545 1545 1545 1545 1545 1544 1543 1543 1542 1542 1541 1540 1539
1513 1511 1495 1491 1495 1501 1503 1514 1535 1544 1548 1544 1533 1536 1533 1524 1521 1520 1521 1523 1525 1530 1533 1534 1537 1538 1541 1542 1543 1544 1545 1545 1545 1545 1544 1544 1544 1543 1543 1542 1542 1541 1540 1539
1511 1510 1493 1490 1490 1495 1504 1513 1515 1530 1536 1543 1540 1533 1528 1523 1522 1522 1522 1524 1526 1529 1532 1534 1536 1538 1541 1542 1543 1544 1544 1545 1545 1544 1544 1544 1544 1543 1542 1542 1541 1541 1540 1539
1500 1507 1497 1491 1491 1496 1500 1506 1520 1531 1542 1547 1540 1536 1535 1527 1526 1525 1524 1525 1527 1529 1532 1534 1536 1539 1541 1542 1543 1544 1545 1545 1544 1544 1544 1544 1543 1543 1542 1542 1541 1541 1540 1539
1498 1508 1505 1499 1503 1505 1504 1509 1517 1529 1532 1542 1547 1542 1524 1522 1522 1523 1525 1526 1528 1530 1532 1535 1537 1538 1541 1542 1543 1544 1544 1544 1544 1544 1544 1543 1543 1543 1543 1542 1541 1541 1540 1539
1499 1509 1515 1508 1500 1498 1501 1506 1514 1527 1531 1533 1540 1540 1521 1520 1522 1523 1525 1527 1529 1531 1533 1535 1537 1538 1540 1542 1543 1543 1544 1544 1544 1544 1544 1543 1543 1543 1543 1542 1542 1541 1540 1539
1499 1511 1523 1520 1515 1506 1505 1504 1507 1517 1527 1534 1540 1538 1522 1522 1524 1525 1527 1529 1531 1533 1534 1536 1537 1539 1541 1542 1542 1543 1543 1544 1544 1544 1544 1544 1543 1543 1543 1542 1542 1541 1540 1539
1496 1510 1520 1525 1520 1511 1509 1506 1506 1514 1528 1531 1530 1530 1527 1526 1526 1527 1529 1530 1532 1534 1535 1537 1538 1540 1541 1542 1542 1543 1543 1543 1543 1544 1544 1544 1543 1543 1543 1542 1542 1542 1541 1539
1498 1510 1509 1509 1506 1505 1506 1506 1506 1510 1515 1524 1525 1526 1526 1526 1526 1528 1530 1532 1533 1535 1536 1537 1539 1540 1541 1541 1542 1542 1543 1543 1543 1544 1544 1544 1544 1543 1543 1543 1543 1542 1541 1540
1500 1508 1509 1512 1507 1506 1508 1507 1507 1510 1512 1517 1521 1526 1523 1525 1527 1530 1531 1532 1534 1535 1537 1538 1539 1540 1541 1541 1542 1542 1543 1543 1543 1544 1544 1544 1544 1544 1544 1544 1543 1542 1542 1541
1503 1508 1515 1520 1511 1510 1520 1514 1512 1514 1513 1516 1523 1525 1525 1527 1528 1530 1531 1532 1533 1536 1537 1538 1539 1540 1541 1541 1542 1542 1543 1543 1544 1544 1544 1544 1544 1544 1544 1544 1544 1543 1542 1541
1502 1509 1517 1521 1520 1530 1523 1511 1511 1515 1517 1516 1519 1522 1525 1527 1530 1531 1532 1533 1534 1536 1537 1538 1539 1540 1541 1541 1542 1542 1543 1543 1544 1544 1544 1545 1545 1545 1544 1544 1544 1543 1543 1542
1496 1505 1517 1525 1529 1527 1518 1513 1513 1518 1523 1520 1521 1524 1527 1529 1531 1533 1533 1534 1534 1535 1537 1538 1539 1540 1541 1541 1542 1542 1543 1543 1544 1544 1545 1545 1545 1545 1545 1545 1544 1544 1543 1542
1497 1501 1514 1522 1527 1531 1521 1512 1511 1516 1527 1522 1521 1523 1526 1528 1533 1535 1534 1534 1535 1536 1537 1538 1539 1540 1541 1542 1542 1542 1543 1544 1544 1545 1545 1546 1546 1546 1546 1545 1545 1545 1544 1543
1506 1509 1516 1522 1526 1523 1514 1511 1512 1524 1526 1521 1521 1522 1525 1526 1529 1531 1533 1534 1535 1537 1538 1539 1540 1541 1541 1542 1543 1543 1544 1544 1545 1545 1546 1546 1546 1546 1546 1546 1546 1545 1545 1544
1508 1514 1518 1521 1527 1527 1512 1511 1515 1518 1517 1519 1521 1523 1525 1526 1528 1531 1533 1535 1536 1538 1539 1540 1541 1542 1542 1543 1543 1543 1544 1545 1545 1546 1546 1546 1546 1546 1546 1546 1546 1546 1545 1544
1505 1508 1512 1517 1521 1514 1511 1511 1513 1515 1517 1520 1522 1524 1525 1527 1529 1532 1534 1536 1537 1539 1540 1541 1542 1542 1543 1543 1544 1544 1545 1545 1546 1546 1546 1547 1547 1547 1547 1547 1546 1546 1545 1544
1503 1502 1509 1514 1514 1513 1513 1514 1515 1517 1518 1520 1523 1525 1526 1528 1530 1532 1535 1536 1538 1539 1540 1541 1542 1543 1543 1544 1544 1545 1545 1546 1546 1547 1547 1547 1547 1547 1547 1547 1547 1546 1545 1544
1500 1502 1509 1513 1514 1515 1516 1516 1517 1519 1521 1522 1525 1526 1527 1529 1531 1533 1535 1537 1538 1539 1541 1542 1542 1543 1544 1545 1545 1546 1546 1547 1547 1547 1548 1548 1548 1548 1548 1547 1547 1546 1546 1545
1499 1502 1508 1512 1510 1512 1515 1517 1518 1520 1522 1524 1525 1527 1529 1530 1532 1534 1536 1537 1538 1540 1541 1542 1543 1544 1544 1545 1546 1546 1547 1547 1548 1548 1548 1548 1548 1548 1548 1548 1547 1547 1546 1545